Weather History for Rutland, VT

Change the Weather History Date:

Tuesday, May 14, 2013

  Actual Average Record
Temperature  
Mean Temperature 41 °F -  
Max Temperature 52 °F - 86 °F (1961)
Min Temperature 30 °F - 29 °F (1951)
Degree Days  
Heating Degree Days 24    
Month to date heating degree days 120  
Since 1 July heating degree days 6680  
Cooling Degree Days 0    
Month to date cooling degree days 0  
Year to date cooling degree days 0  
Moisture  
Dew Point 29 °F    
Average Humidity 65    
Maximum Humidity 92    
Minimum Humidity 38    
Precipitation  
Precipitation 0.00 in - 17.12 in (2006)
Month to date precipitation 0.26  
Year to date precipitation 4.77  
Sea Level Pressure  
Sea Level Pressure 30.05 in    
Wind  
Wind Speed 5 mph (NE)    
Max Wind Speed 12 mph    
Max Gust Speed 17 mph    
Visibility 10 miles    
Events      
T = Trace of Precipitation, MM = Missing Value Source: NWS Daily Summary

Daily Weather History Graph

Daily Weather History Graph

Search for Another Location

Airport:

Trip Planner

Search our weather history database for the weather conditions in past years. The results will help you decide how hot, cold, wet, or windy it might be!

Date:

Astronomy

May. 14, 2013 Rise Set
Actual Time 5:27 AM EDT 8:09 PM EDT
Civil Twilight 4:55 AM EDT 8:42 PM EDT
Nautical Twilight 4:13 AM EDT 9:23 PM EDT
Astronomical Twilight 3:26 AM EDT 10:11 PM EDT
Moon 9:05 AM EDT (5/14) 11:53 PM EDT (5/14)
Length of Visible Light 15h 47m
Length of Day
14h 41m
Waxing Crescent, 19% of the Moon is Illuminated
May 14
Waxing Crescent
May 18
First Quarter
May 25
Full
May 31
Last Quarter
Jun 8
New

Hourly Weather History & Observations

Time (EDT) Temp. Windchill Dew Point Humidity Pressure Visibility Wind Dir Wind Speed Gust Speed Precip Events Conditions
12:15 AM 41.0 °F - 30.2 °F 65% 30.05 in 10.0 mi Calm Calm - N/A   Overcast
12:35 AM 39.2 °F - 32.0 °F 75% 30.05 in 10.0 mi Calm Calm - N/A   Overcast
12:55 AM 39.2 °F - 32.0 °F 75% 30.05 in 10.0 mi Calm Calm - N/A   Overcast
1:15 AM 39.2 °F - 32.0 °F 75% 30.05 in 10.0 mi Calm Calm - N/A   Overcast
1:35 AM 39.2 °F - 30.2 °F 70% 30.04 in 10.0 mi Calm Calm - N/A   Overcast
1:55 AM 39.2 °F - 33.8 °F 81% 30.04 in 10.0 mi Calm Calm - N/A   Mostly Cloudy
2:15 AM 37.4 °F - 33.8 °F 87% 30.04 in 10.0 mi Calm Calm - N/A   Overcast
2:35 AM 35.6 °F 32.8 °F 33.8 °F 93% 30.04 in 10.0 mi South 3.5 mph - N/A   Scattered Clouds
2:55 AM 35.6 °F 32.8 °F 32.0 °F 87% 30.04 in 10.0 mi SE 3.5 mph - N/A   Clear
3:15 AM 35.6 °F 31.7 °F 30.2 °F 81% 30.04 in 10.0 mi SE 4.6 mph - N/A   Clear
3:35 AM 33.8 °F 30.8 °F 28.4 °F 81% 30.04 in 10.0 mi SSE 3.5 mph - N/A   Clear
3:55 AM 33.8 °F - 28.4 °F 81% 30.05 in 10.0 mi Calm Calm - N/A   Clear
4:15 AM 32.0 °F 27.5 °F 28.4 °F 87% 30.05 in 10.0 mi SE 4.6 mph - N/A   Clear
4:35 AM 32.0 °F 27.5 °F 28.4 °F 87% 30.06 in 10.0 mi SSE 4.6 mph - N/A   Clear
4:55 AM 30.2 °F 24.3 °F 28.4 °F 93% 30.06 in 10.0 mi SE 5.8 mph - N/A   Clear
5:15 AM 32.0 °F 25.6 °F 28.4 °F 87% 30.06 in 10.0 mi SE 6.9 mph - N/A   Clear
5:35 AM 32.0 °F 28.7 °F 28.4 °F 87% 30.06 in 10.0 mi ESE 3.5 mph - N/A   Clear
5:55 AM 30.2 °F 24.3 °F 28.4 °F 93% 30.07 in 10.0 mi SE 5.8 mph - N/A   Clear
6:15 AM 30.2 °F 23.4 °F 28.4 °F 93% 30.07 in 10.0 mi SE 6.9 mph - N/A   Clear
6:35 AM 32.0 °F 26.4 °F 28.4 °F 87% 30.08 in 10.0 mi SE 5.8 mph - N/A   Clear
6:55 AM 33.8 °F 29.6 °F 28.4 °F 81% 30.09 in 10.0 mi SE 4.6 mph - N/A   Clear
7:15 AM 35.6 °F - 30.2 °F 81% 30.09 in 10.0 mi Calm Calm - N/A   Clear
7:35 AM 37.4 °F - 28.4 °F 70% 30.09 in 10.0 mi Calm Calm - N/A   Partly Cloudy
7:55 AM 39.2 °F - 30.2 °F 70% 30.09 in 10.0 mi Calm Calm - N/A   Scattered Clouds
8:15 AM 39.2 °F 35.0 °F 28.4 °F 65% 30.10 in 10.0 mi NNE 5.8 mph - N/A   Overcast
8:35 AM 39.2 °F - 28.4 °F 65% 30.10 in 10.0 mi Calm Calm - N/A   Mostly Cloudy
8:55 AM 42.8 °F 39.3 °F 30.2 °F 61% 30.10 in 10.0 mi North 5.8 mph - N/A   Partly Cloudy
9:15 AM 42.8 °F 38.0 °F 30.2 °F 61% 30.09 in 10.0 mi North 8.1 mph - N/A   Clear
9:35 AM 42.8 °F 38.6 °F 28.4 °F 57% 30.09 in 10.0 mi North 6.9 mph - N/A   Scattered Clouds
9:55 AM 44.6 °F 41.4 °F 30.2 °F 57% 30.08 in 10.0 mi North 5.8 mph - N/A   Scattered Clouds
10:15 AM 44.6 °F 41.4 °F 30.2 °F 57% 30.07 in 10.0 mi North 5.8 mph - N/A   Scattered Clouds
10:35 AM 46.4 °F 41.9 °F 30.2 °F 53% 30.07 in 10.0 mi NNW 9.2 mph - N/A   Partly Cloudy
10:55 AM 48.2 °F - 28.4 °F 46% 30.06 in 10.0 mi North 9.2 mph 16.1 mph N/A   Scattered Clouds
11:15 AM 48.2 °F - 24.8 °F 40% 30.06 in 10.0 mi NW 9.2 mph 16.1 mph N/A   Mostly Cloudy
11:35 AM 48.2 °F - 26.6 °F 43% 30.06 in 10.0 mi NW 8.1 mph 17.3 mph N/A   Mostly Cloudy
11:55 AM 48.2 °F - 26.6 °F 43% 30.06 in 10.0 mi WNW 11.5 mph - N/A   Scattered Clouds
12:15 PM 48.2 °F - 26.6 °F 43% 30.06 in 10.0 mi NNW 12.7 mph 18.4 mph N/A   Mostly Cloudy
12:35 PM 48.2 °F - 26.6 °F 43% 30.06 in 10.0 mi NW 11.5 mph 16.1 mph N/A   Overcast
12:55 PM 48.2 °F - 26.6 °F 43% 30.06 in 10.0 mi WNW 9.2 mph 17.3 mph N/A   Overcast
1:15 PM 48.2 °F - 26.6 °F 43% 30.06 in 10.0 mi NW 10.4 mph 16.1 mph N/A   Overcast
1:35 PM 48.2 °F - 26.6 °F 43% 30.06 in 10.0 mi NNW 10.4 mph - N/A   Overcast
1:55 PM 48.2 °F - 24.8 °F 40% 30.06 in 10.0 mi NNW 9.2 mph - N/A   Overcast
2:15 PM 48.2 °F - 26.6 °F 43% 30.05 in 10.0 mi NW 6.9 mph - N/A   Overcast
2:35 PM 48.2 °F - 26.6 °F 43% 30.05 in 10.0 mi NNW 4.6 mph - N/A   Overcast
2:55 PM 51.8 °F - 26.6 °F 38% 30.04 in 10.0 mi West 6.9 mph - N/A   Mostly Cloudy
3:15 PM 50.0 °F - 24.8 °F 37% 30.03 in 10.0 mi North 8.1 mph - N/A   Mostly Cloudy
3:35 PM 48.2 °F - 26.6 °F 43% 30.03 in 10.0 mi North 6.9 mph - N/A   Overcast
3:55 PM 50.0 °F - 26.6 °F 40% 30.03 in 10.0 mi North 8.1 mph - N/A   Overcast
4:15 PM 50.0 °F - 26.6 °F 40% 30.02 in 10.0 mi North 9.2 mph - N/A   Overcast
4:35 PM 51.8 °F - 26.6 °F 38% 30.01 in 10.0 mi NNW 8.1 mph - N/A   Mostly Cloudy
4:55 PM 50.0 °F - 26.6 °F 40% 30.01 in 10.0 mi Calm Calm - N/A   Overcast
5:15 PM 51.8 °F - 24.8 °F 35% 30.01 in 10.0 mi NW 6.9 mph - N/A   Scattered Clouds
5:35 PM 51.8 °F - 26.6 °F 38% 30.00 in 10.0 mi NW 4.6 mph - N/A   Partly Cloudy
5:55 PM 51.8 °F - 28.4 °F 41% 30.00 in 10.0 mi Calm Calm - N/A   Partly Cloudy
6:15 PM 51.8 °F - 26.6 °F 38% 30.00 in 10.0 mi WNW 3.5 mph - N/A   Partly Cloudy
6:35 PM 51.8 °F - 26.6 °F 38% 30.00 in 10.0 mi West 3.5 mph - N/A   Mostly Cloudy
6:55 PM 50.0 °F - 26.6 °F 40% 30.00 in 10.0 mi Calm Calm - N/A   Overcast
7:15 PM 51.8 °F - 26.6 °F 38% 29.99 in 10.0 mi Calm Calm - N/A   Mostly Cloudy
7:35 PM 51.8 °F - 26.6 °F 38% 30.00 in 10.0 mi Calm Calm - N/A   Partly Cloudy
7:55 PM 48.2 °F - 33.8 °F 58% 30.00 in 10.0 mi SE 4.6 mph - N/A   Clear
8:15 PM 44.6 °F 41.4 °F 33.8 °F 66% 30.01 in 10.0 mi SE 5.8 mph - N/A   Clear
8:35 PM 44.6 °F 40.2 °F 32.0 °F 61% 30.01 in 10.0 mi ESE 8.1 mph - N/A   Clear
8:55 PM 42.8 °F 37.0 °F 30.2 °F 61% 30.02 in 10.0 mi SE 10.4 mph - N/A   Partly Cloudy
9:15 PM 42.8 °F 36.6 °F 30.2 °F 61% 30.02 in 10.0 mi SE 11.5 mph - N/A   Partly Cloudy
9:35 PM 42.8 °F 36.6 °F 30.2 °F 61% 30.03 in 10.0 mi ESE 11.5 mph - N/A   Clear
9:55 PM 39.2 °F 33.6 °F 30.2 °F 70% 30.04 in 10.0 mi SSE 8.1 mph - N/A   Clear
10:15 PM 39.2 °F 32.5 °F 30.2 °F 70% 30.04 in 10.0 mi ESE 10.4 mph - N/A   Clear
10:35 PM 39.2 °F 34.2 °F 30.2 °F 70% 30.04 in 10.0 mi SSE 6.9 mph - N/A   Clear
10:55 PM 39.2 °F 32.5 °F 30.2 °F 70% 30.04 in 10.0 mi ESE 10.4 mph - N/A   Clear
11:15 PM 37.4 °F 29.8 °F 28.4 °F 70% 30.04 in 10.0 mi SE 11.5 mph - N/A   Clear
11:35 PM 37.4 °F 30.3 °F 28.4 °F 70% 30.04 in 10.0 mi SE 10.4 mph - N/A   Clear
11:55 PM 37.4 °F 29.8 °F 28.4 °F 70% 30.05 in 10.0 mi ESE 11.5 mph - N/A   Clear